Погода в Высоковске

Россия / Московская область     56°19′13″N   36°33′04″E
темп.,
°C
ветер,
м/с
пор.,
м/с
влажн.,
%
обл.,
%
осадки,
мм/ч
давл.,
гПа
погр.,
м
13 июня, вс
вс1300:00+13ююз2293100 0.0 100725
03:00+12ююз22955 0.0 100624
06:00+14ю13883 0.0 100691
09:00+19ююз23780 0.9 1006489
12:00+21ю237035 2.6 1006961
15:00+24юз244945 3.1 10051876
18:00+20ююз1170100 0.0 100612
21:00+18ююз117599 0.0 100713
14 июня, пн
пн1400:00+14ююз22870 0.0 100930
03:00+14ююз22935 0.0 101017
06:00+16ююз12845 0.0 101188
09:00+22юз22649 0.0 1013668
12:00+24зюз235924 0.3 10141399
15:00+25з334910 0.8 10141716
18:00+24зсз236243 0.1 1014820
21:00+17св119188 1.7 101512
15 июня, вт
вт1500:00+16юв119265 0.6 101511
03:00+15зсз00945 0.6 101511
06:00+17ююз00925 0.0 101547
09:00+21юз22735 0.0 1014558
12:00+25зюз34556 0.1 10131548
15:00+26з344899 0.1 10111997
18:00+22з356955 0.2 1010514
21:00+18сз12885 0.4 101119
16 июня, ср
ср1600:00+15зсз229212 0.0 101115
03:00+14зсз229337 0.0 101134
06:00+15ссз388497 0.0 1012299
09:00+18ссз4670100 0.0 1013754
12:00+17ссз577697 0.0 1015627
15:00+22с46445 0.0 10152129
18:00+21с47455 0.0 10162099
21:00+14ссз27693 0.0 1018124
17 июня, чт
чт1700:00+11с23765 0.0 102050
03:00+10с25770 0.0 102292
06:00+11с28700 0.0 1023217
09:00+17ссв47440 0.0 1024838
12:00+21ссв45370 0.0 10241479
15:00+22ссв34335 0.0 10241716
18:00+21св34466 0.0 10241417
21:00+15всв227463 0.0 102516